Simultaneous Nadir Overpasses (SNOs) Predictions

Prediction of SNOs between LANDSAT-8 and METOP-A Satellite Orbit:

Table of predicted SNOs for the next 14.0 days since TLE Epoch: 8/25/2018
Index Date (LANDSAT-8) Time (LANDSAT-8) Lat,Lon (LANDSAT-8) SZA (LANDSAT-8 ) Date (METOP-A) Time (METOP-A) Lat,Lon (METOP-A) SZA (METOP-A ) Distance(km) Time Diff (sec)
1 08/25/2018 05:39:27 81.40, 140.08 73.14 08/25/2018 05:40:05 81.39, 139.92 73.13 2.80 38
2 08/28/2018 00:24:18 -81.38, 38.51 105.94 08/28/2018 00:23:42 -81.39, 38.63 105.94 2.12 36
3 08/28/2018 01:13:44 81.39,-153.72 74.10 08/28/2018 01:14:21 81.40,-153.53 74.14 3.16 37
4 08/30/2018 19:58:33 -81.39, 105.09 104.90 08/30/2018 19:57:57 -81.39, 105.18 104.90 1.48 36
5 08/30/2018 20:47:59 81.40, -87.16 75.14 08/30/2018 20:48:36 81.40, -87.00 75.17 2.69 37
6 09/02/2018 15:32:49 -81.40, 171.65 103.84 09/02/2018 15:32:13 -81.39, 171.72 103.85 1.23 36
7 09/02/2018 16:22:15 81.40, -20.64 76.19 09/02/2018 16:22:52 81.40, -20.49 76.22 2.55 37
8 09/05/2018 11:07:06 -81.38,-122.22 102.83 09/05/2018 11:06:30 -81.39,-122.16 102.83 1.21 36




NCC Satellite Simultaneous Nadir Overpasses (SNOs) Prediction Service
